Lille, France

3:56 PM CEST on June 25, 2017 (GMT +0200)
Lesquin

Weather History for LFQQ - April, 2013

Change the Weather History Date:

Tuesday, April 2, 2013

  Actual Average Record
Temperature  
Mean Temperature 38 °F -  
Max Temperature 46 °F 56 °F 73 °F (2011)
Min Temperature 30 °F 41 °F 30 °F (2013)
Degree Days  
Heating Degree Days 27    
Moisture  
Dew Point 18 °F    
Average Humidity 44    
Maximum Humidity 64    
Minimum Humidity 19    
Precipitation  
Precipitation 0.00 in - - ()
Sea Level Pressure  
Sea Level Pressure 29.85 in    
Wind  
Wind Speed 12 mph ()    
Max Wind Speed 20 mph    
Max Gust Speed -    
Visibility 9.3 miles    
Events      
Averages and records for this station are not official NWS values.
T = Trace of Precipitation, MM = Missing Value Source: Averaged Metar Reports

Daily Weather History Graph

Daily Weather History Graph

Search for Another Location

Airport or City:

Trip Planner

Search our weather history database for the weather conditions in past years. The results will help you decide how hot, cold, wet, or windy it might be!

Date:

Astronomy

Apr. 02, 2013 Rise Set
Actual Time 7:21 AM CEST 8:21 PM CEST
Civil Twilight 6:48 AM CEST 8:55 PM CEST
Nautical Twilight 6:08 AM CEST 9:35 PM CEST
Astronomical Twilight 5:25 AM CEST 10:18 PM CEST
Moon 2:39 AM CEST (4/2) 11:29 AM CEST (4/2)
Length of Visible Light 14h 06m
Length of Day
13h 00m
Waning Gibbous, 59% of the Moon is Illuminated
Apr 2
Waning Gibbous
Apr 3
Last Quarter
Apr 10
New
Apr 18
First Quarter
Apr 25
Full

Hourly Weather History & Observations

Time (CEST) Temp. Windchill Dew Point Humidity Pressure Visibility Wind Dir Wind Speed Gust Speed Precip Events Conditions
12:00 AM 37.4 °F 29.8 °F 19.4 °F 48% 29.80 in - NE 11.5 mph - N/A   Clear
1:00 AM 35.6 °F 27.1 °F 19.4 °F 52% 29.80 in - NE 12.7 mph - N/A   Clear
2:00 AM 35 °F - 18 °F 37% 29.82 in 12 mi NE 11.5 mph - -  
2:00 AM 35.6 °F 27.5 °F 19.4 °F 52% 29.80 in - NE 11.5 mph - N/A   Clear
2:30 AM 35.6 °F 28.0 °F 19.4 °F 52% 29.80 in 6.2 mi NE 10.4 mph - N/A   Unknown
3:00 AM 33.8 °F 25.8 °F 19.4 °F 56% 29.80 in 6.2 mi NE 10.4 mph - N/A   Unknown
3:30 AM 33.8 °F 25.3 °F 19.4 °F 56% 29.80 in 6.2 mi NE 11.5 mph - N/A   Unknown
4:00 AM 32.0 °F 23.0 °F 19.4 °F 60% 29.80 in 6.2 mi NE 11.5 mph - N/A   Unknown
4:30 AM 33.8 °F 25.3 °F 19.4 °F 56% 29.80 in 6.2 mi NE 11.5 mph - N/A   Unknown
5:00 AM 32.0 °F 22.5 °F 19.4 °F 60% 29.80 in - NE 12.7 mph - N/A   Clear
5:30 AM 32.0 °F 23.0 °F 19.4 °F 60% 29.80 in - NE 11.5 mph - N/A   Clear
6:00 AM 32.0 °F 22.1 °F 19.4 °F 60% 29.80 in - NE 13.8 mph - N/A   Clear
6:30 AM 32.0 °F 22.5 °F 19.4 °F 60% 29.80 in - NE 12.7 mph - N/A   Clear
7:00 AM 30.2 °F 20.2 °F 19.4 °F 64% 29.83 in - NE 12.7 mph - N/A   Clear
7:30 AM 30.2 °F 20.2 °F 19.4 °F 64% 29.83 in - NE 12.7 mph - N/A   Clear
8:00 AM 31 °F - 20 °F 51% 29.85 in 12 mi NE 12.7 mph - -   Partly Cloudy
8:00 AM 30.2 °F 20.8 °F 19.4 °F 64% 29.83 in - NE 11.5 mph - N/A   Clear
8:30 AM 32.0 °F 23.0 °F 19.4 °F 60% 29.83 in - NE 11.5 mph - N/A   Clear
9:00 AM 32.0 °F 22.5 °F 21.2 °F 64% 29.83 in - NE 12.7 mph - N/A   Clear
9:30 AM 33.8 °F 25.3 °F 21.2 °F 60% 29.83 in - ENE 11.5 mph - N/A   Clear
10:00 AM 35.6 °F 26.6 °F 21.2 °F 56% 29.86 in - NE 13.8 mph - N/A   Clear
10:30 AM 37.4 °F 29.3 °F 21.2 °F 52% 29.86 in - NE 12.7 mph - N/A   Clear
11:00 AM 37.4 °F 28.5 °F 19.4 °F 48% 29.86 in - ENE 15.0 mph - N/A   Clear
11:30 AM 39.2 °F 29.6 °F 19.4 °F 45% 29.86 in - ENE 19.6 mph - N/A   Clear
12:00 PM 41.0 °F 31.9 °F 19.4 °F 42% 29.86 in - ENE 19.6 mph - N/A   Clear
12:30 PM 41.0 °F 32.2 °F 17.6 °F 39% 29.86 in - NE 18.4 mph - N/A   Clear
1:00 PM 42.8 °F 34.3 °F 15.8 °F 34% 29.86 in - ENE 19.6 mph - N/A   Clear
1:30 PM 42.8 °F 34.3 °F 15.8 °F 34% 29.86 in - ENE 19.6 mph - N/A   Clear
2:00 PM 43 °F - 17 °F 22% 29.87 in 19 mi ENE 16.1 mph - -  
2:00 PM 42.8 °F 35.4 °F 17.6 °F 36% 29.86 in - ENE 15.0 mph - N/A   Clear
2:30 PM 44.6 °F 37.2 °F 17.6 °F 34% 29.86 in - NE 17.3 mph - N/A   Clear
3:00 PM 44.6 °F 37.4 °F 17.6 °F 34% 29.86 in - ENE 16.1 mph - N/A   Clear
4:00 PM 44.6 °F 37.2 °F 17.6 °F 34% 29.86 in - NE 17.3 mph - N/A   Clear
4:30 PM 46.4 °F 39.5 °F 17.6 °F 32% 29.86 in - ENE 17.3 mph - N/A   Clear
5:00 PM 46.4 °F 40.1 °F 17.6 °F 32% 29.83 in - ENE 15.0 mph - N/A   Clear
5:30 PM 46.4 °F 39.5 °F 17.6 °F 32% 29.86 in - ENE 17.3 mph - N/A   Clear
6:00 PM 46.4 °F 39.2 °F 17.6 °F 32% 29.86 in - NE 18.4 mph - N/A   Clear
6:30 PM 46.4 °F 39.5 °F 15.8 °F 29% 29.86 in - ENE 17.3 mph - N/A   Clear
7:00 PM 46.4 °F 39.5 °F 15.8 °F 29% 29.86 in - NE 17.3 mph - N/A   Clear
7:30 PM 44.6 °F 37.8 °F 15.8 °F 31% 29.86 in - ENE 15.0 mph - N/A   Clear
8:00 PM 44 °F - 15 °F 19% 29.89 in 25 mi ENE 12.7 mph - -  
8:00 PM 44.6 °F 37.8 °F 15.8 °F 31% 29.86 in - ENE 15.0 mph - N/A   Clear
8:30 PM 42.8 °F 36.6 °F 15.8 °F 34% 29.89 in - NE 11.5 mph - N/A   Clear
9:00 PM 42.8 °F 37.0 °F 15.8 °F 34% 29.89 in - NE 10.4 mph - N/A   Clear
9:30 PM 41.0 °F 35.2 °F 15.8 °F 36% 29.89 in - NE 9.2 mph - N/A   Clear
10:00 PM 41.0 °F 34.3 °F 17.6 °F 39% 29.92 in - NE 11.5 mph - N/A   Clear
10:30 PM 39.2 °F 32.0 °F 17.6 °F 42% 29.92 in - NE 11.5 mph - N/A   Clear
11:00 PM 39.2 °F 32.0 °F 15.8 °F 39% 29.92 in - NE 11.5 mph - N/A   Clear
11:30 PM 39.2 °F 32.0 °F 17.6 °F 42% 29.92 in - NE 11.5 mph - N/A   Clear